This is the latest recevied weather packets stored in our database for station/object K5IDL. If no packets are shown the sender has not sent any weather packets the latest 10 day(s).
| Time | Temp. | Humidity | Pressure | Rain* | Wind** | Luminosity | Snow |
|---|---|---|---|---|---|---|---|
| 1778183827 | 23.89° C | 45% | 1017.3 hPa | 0 mm | - | 116 W/m² | - |
| 1778183524 | 24.44° C | 43% | 1017.4 hPa | 0 mm | - | 102 W/m² | - |
| 1778183221 | 25° C | 43% | 1017.5 hPa | 0 mm | - | 96 W/m² | - |
| 1778182916 | 24.44° C | 45% | 1017.4 hPa | 0 mm | - | 153 W/m² | - |
| 1778182613 | 24.44° C | 44% | 1017.7 hPa | 0 mm | - | 106 W/m² | - |
| 1778182311 | 24.44° C | 44% | 1017.7 hPa | 0 mm | - | 715 W/m² | - |
| 1778182006 | 23.89° C | 44% | 1017.7 hPa | 0 mm | - | 724 W/m² | - |
| 1778181704 | 23.89° C | 43% | 1017.7 hPa | 0 mm | - | 677 W/m² | - |
| 1778181399 | 23.89° C | 44% | 1017.7 hPa | 0 mm | - | 730 W/m² | - |
| 1778181096 | 24.44° C | 44% | 1018 hPa | 0 mm | - | 733 W/m² | - |
| 1778180793 | 23.89° C | 44% | 1018.2 hPa | 0 mm | - | 702 W/m² | - |
| 1778180492 | 23.89° C | 45% | 1018.3 hPa | 0 mm | - | 742 W/m² | - |
| 1778179388 | 22.78° C | 47% | 1018.4 hPa | 0 mm | - | 756 W/m² | - |
| 1778179085 | 22.78° C | 47% | 1018.4 hPa | 0 mm | - | 756 W/m² | - |
| 1778178782 | 22.78° C | 47% | 1018.4 hPa | 0 mm | - | 756 W/m² | - |
| 1778178479 | 22.22° C | 46% | 1018.4 hPa | 0 mm | - | 756 W/m² | - |
| 1778178175 | 22.78° C | 47% | 1018.6 hPa | 0 mm | - | 759 W/m² | - |
| 1778177872 | 23.33° C | 47% | 1018.5 hPa | 0 mm | - | 759 W/m² | - |
| 1778177567 | 22.78° C | 47% | 1018.7 hPa | 0 mm | - | 785 W/m² | - |
| 1778177264 | 22.78° C | 46% | 1018.8 hPa | 0 mm | - | 775 W/m² | - |
| 1778176956 | 22.22° C | 48% | 1019 hPa | 0 mm | - | 768 W/m² | - |
| 1778176651 | 22.22° C | 47% | 1019 hPa | 0 mm | - | 740 W/m² | - |
| 1778176348 | 22.22° C | 49% | 1019 hPa | 0 mm | - | 726 W/m² | - |
| 1778176045 | 21.67° C | 48% | 1019.2 hPa | 0 mm | - | 740 W/m² | - |
| 1778175743 | 21.67° C | 50% | 1019 hPa | 0 mm | - | 676 W/m² | - |
* Rain latest hour (hover to see other rain measurements)
** Current wind speed in m/s (hover to see current wind gust speed)